EW8906 Velez Malaga ES current weather conditions

sailwx.info

Wind from 199

Air temperature 18.9° C
Dewpoint 13.7° C

Last reported at 2020-Sep-19 09:00 UTC.
Time now 2020-Sep-19 09:50 UTC

Location: N 36°52' W 004°04'.
View on Google Maps.

See reports from other nearby stations

  
Tides and Currents Weather Stations Pressure Air Temp Water Temp Dewpoint Dewpoint Depression Visibility Wind Speed Wind Dir Waves Ship Positions
date/time (UTC)wind fromknots sea level pressurealtimeterstation pressurevisibilityair tempwater tempwave heightnotes
2020-Sep-19 09:00 199 18.9
2020-Sep-19 08:45 204 19.4
2020-Sep-19 08:30 209 18.9
2020-Sep-19 08:15 195 18.9
2020-Sep-19 08:00 216 18.9
2020-Sep-19 07:45 160 18.3
2020-Sep-19 07:31 206 17.8
2020-Sep-19 07:16 173 17.2
2020-Sep-19 07:01 238 16.7
2020-Sep-19 06:46 191 16.1
2020-Sep-19 06:32 244 16.1
2020-Sep-19 06:16 225 15.6
2020-Sep-19 06:01 344 0 gusting 4 15.6
2020-Sep-19 05:46 257 15.6
2020-Sep-19 05:31 257 15.6
2020-Sep-19 05:15 309 15.6
2020-Sep-19 05:01 258 15.6
2020-Sep-19 04:46 258 15.6
2020-Sep-19 04:31 258 16.1
2020-Sep-19 04:16 258 16.1
2020-Sep-19 04:03 258 16.1
2020-Sep-19 03:47 258 16.1
2020-Sep-19 03:31 258 16.7
2020-Sep-19 03:16 245 16.7
2020-Sep-19 03:00 223 2 gusting 5 16.1
2020-Sep-19 02:46 033 16.1
2020-Sep-19 02:30 248 16.7
2020-Sep-19 02:16 223 16.7
2020-Sep-19 02:00 223 16.7
2020-Sep-19 01:46 241 16.7
2020-Sep-19 01:31 240 16.7
2020-Sep-19 01:15 279 17.2
2020-Sep-19 01:01 244 0 gusting 2 16.7
2020-Sep-19 00:45 271 1 gusting 3 17.2
2020-Sep-19 00:30 240 17.2
2020-Sep-19 00:15 286 0 gusting 2 17.2
2020-Sep-19 00:00 234 16.7
2020-Sep-18 23:45 270 17.2
2020-Sep-18 23:30 271 0 gusting 6 16.7
2020-Sep-18 23:15 276 16.7
2020-Sep-18 23:00 277 17.2
2020-Sep-18 22:45 283 16.7
2020-Sep-18 22:30 221 0 gusting 4 17.2
2020-Sep-18 22:15 211 17.2
2020-Sep-18 22:00 208 17.2
2020-Sep-18 21:45 268 0 gusting 8 17.2
2020-Sep-18 21:30 242 1 gusting 6 17.2
2020-Sep-18 21:15 279 3 gusting 9 17.8
2020-Sep-18 21:00 253 0 gusting 6 17.2
2020-Sep-18 20:47 267 17.2
2020-Sep-18 20:31 229 0 gusting 4 17.2
2020-Sep-18 20:17 235 17.2
2020-Sep-18 20:01 257 17.2
2020-Sep-18 19:46 265 17.2
2020-Sep-18 19:31 201 16.7
2020-Sep-18 19:16 192 16.7
2020-Sep-18 19:01 195 16.7
2020-Sep-18 18:46 153 0 gusting 3 17.2
2020-Sep-18 18:33 208 17.2
2020-Sep-18 18:17 209 17.2
2020-Sep-18 18:02 211 17.8
2020-Sep-18 17:46 215 17.8
2020-Sep-18 17:31 215 17.8
2020-Sep-18 17:16 205 0 gusting 8 17.8
2020-Sep-18 17:01 218 0 gusting 6 18.3
2020-Sep-18 16:45 191 19.4
2020-Sep-18 16:31 211 2 gusting 5 19.4
2020-Sep-18 16:16 169 2 gusting 13 20.0
2020-Sep-18 16:02 146 3 gusting 9 20.6
2020-Sep-18 15:46 189 4 gusting 8 20.6
2020-Sep-18 15:31 165 6 gusting 13 21.1
2020-Sep-18 15:15 166 4 gusting 10 22.2
2020-Sep-18 15:01 190 4 gusting 8 21.7
2020-Sep-18 14:45 158 4 gusting 9 20.6
2020-Sep-18 14:32 167 2 gusting 6 20.0
2020-Sep-18 14:00 165 2 gusting 6 19.4
2020-Sep-18 13:46 121 4 gusting 11 19.4
2020-Sep-18 13:30 107 5 gusting 11 20.0
2020-Sep-18 13:16 121 6 gusting 12 20.0
2020-Sep-18 13:00 092 2 gusting 11 20.6
2020-Sep-18 12:45 125 3 gusting 7 18.9
2020-Sep-18 12:30 134 0 gusting 6 18.9
2020-Sep-18 12:16 128 3 gusting 7 18.9
2020-Sep-18 12:00 139 2 gusting 8 18.3
2020-Sep-18 11:46 175 2 gusting 7 17.8
2020-Sep-18 11:30 155 1 gusting 6 17.2
2020-Sep-18 11:15 183 2 gusting 10 17.2
2020-Sep-18 11:00 113 4 gusting 11 17.8
2020-Sep-18 10:45 187 4 gusting 9 17.2
2020-Sep-18 10:30 199 4 gusting 8 17.8
2020-Sep-18 10:15 148 2 gusting 7 17.8
2020-Sep-18 10:00 142 5 gusting 10 17.8
2020-Sep-18 09:45 078 6 gusting 12 17.8
2020-Sep-18 09:30 142 7 gusting 13 17.8
2020-Sep-18 09:15 123 7 gusting 13 17.8
2020-Sep-18 09:00 128 6 gusting 13 17.8
2020-Sep-18 08:45 115 9 gusting 16 17.2
2020-Sep-18 08:17 127 9 gusting 18 16.7
2020-Sep-18 08:01 134 8 gusting 13 17.2
2020-Sep-18 07:46 144 4 gusting 12 18.3
2020-Sep-18 07:31 121 6 gusting 14 18.3
2020-Sep-18 07:16 126 8 gusting 14 18.3
2020-Sep-18 07:00 103 8 gusting 18 17.8
2020-Sep-18 06:45 109 10 gusting 15 17.8
2020-Sep-18 06:30 118 6 gusting 13 17.8
2020-Sep-18 06:15 124 3 gusting 7 18.3
2020-Sep-18 06:00 147 2 gusting 10 18.3
2020-Sep-18 05:46 142 6 gusting 12 18.3
2020-Sep-18 05:31 100 7 gusting 12 18.3
2020-Sep-18 05:15 109 4 gusting 11 17.2
2020-Sep-18 05:00 066 4 gusting 10 17.2
2020-Sep-18 04:46 200 0 gusting 7 17.8
2020-Sep-18 04:30 107 0 gusting 5 17.2
2020-Sep-18 04:16 063 1 gusting 5 17.2
2020-Sep-18 04:00 234 17.2
2020-Sep-18 03:45 089 16.7
2020-Sep-18 03:30 076 0 gusting 3 16.7
2020-Sep-18 03:15 067 3 gusting 9 16.1
2020-Sep-18 03:01 096 2 gusting 6 16.1
2020-Sep-18 02:45 128 2 gusting 6 16.1
2020-Sep-18 02:30 140 2 gusting 7 16.1
2020-Sep-18 02:15 062 3 gusting 8 16.1
2020-Sep-18 02:00 107 4 gusting 8 16.1
2020-Sep-18 01:46 110 2 gusting 9 16.1
2020-Sep-18 01:31 115 4 gusting 7 16.1
2020-Sep-18 01:16 076 0 gusting 12 16.7
2020-Sep-18 01:01 129 3 gusting 8 16.7
2020-Sep-18 00:47 115 0 gusting 3 16.7
2020-Sep-18 00:31 175 16.7
2020-Sep-18 00:17 206 17.2
2020-Sep-18 00:01 230 1 gusting 4 17.2
2020-Sep-17 23:46 142 0 gusting 6 17.8
2020-Sep-17 23:31 157 17.8
2020-Sep-17 23:15 140 0 gusting 3 18.3
2020-Sep-17 23:01 213 1 gusting 6 18.3
2020-Sep-17 22:45 241 2 gusting 10 18.9
2020-Sep-17 22:33 255 18.9
2020-Sep-17 22:15 267 18.9
2020-Sep-17 22:01 244 1 gusting 6 18.9
2020-Sep-17 21:45 080 17.8
2020-Sep-17 21:31 071 17.8
2020-Sep-17 21:15 137 1 gusting 7 18.3
2020-Sep-17 21:00 355 2 gusting 5 18.9
2020-Sep-17 20:45 119 18.9
2020-Sep-17 20:31 227 18.9
2020-Sep-17 20:15 136 19.4
2020-Sep-17 19:46 234 0 gusting 11 19.4
2020-Sep-17 19:30 224 4 gusting 9 19.4
2020-Sep-17 19:15 248 19.4
2020-Sep-17 19:00 092 2 gusting 5 18.9
2020-Sep-17 18:45 059 0 gusting 4 19.4
2020-Sep-17 18:30 119 20.0
2020-Sep-17 18:16 214 2 gusting 6 20.6
2020-Sep-17 18:00 229 1 gusting 6 21.7
2020-Sep-17 17:45 170 22.2
2020-Sep-17 17:30 168 0 gusting 5 21.7
2020-Sep-17 17:15 206 2 gusting 8 22.8
2020-Sep-17 17:00 173 2 gusting 6 24.4
2020-Sep-17 16:45 139 1 gusting 8 25.0
2020-Sep-17 16:30 154 2 gusting 10 25.6
2020-Sep-17 16:15 166 3 gusting 8 25.6
2020-Sep-17 16:00 132 1 gusting 8 25.6
2020-Sep-17 15:45 113 26.7
2020-Sep-17 15:30 142 5 gusting 12 26.7
2020-Sep-17 15:17 114 3 gusting 10 26.1
2020-Sep-17 15:02 123 2 gusting 7 26.7
2020-Sep-17 14:46 168 4 gusting 11 26.7
2020-Sep-17 14:31 169 4 gusting 9 27.8
2020-Sep-17 14:16 130 3 gusting 9 27.8
2020-Sep-17 14:01 213 3 gusting 8 27.8
2020-Sep-17 13:46 109 4 gusting 12 27.8
2020-Sep-17 13:31 180 2 gusting 9 27.2
2020-Sep-17 13:16 134 1 gusting 8 27.2
2020-Sep-17 13:01 182 2 gusting 8 27.8
2020-Sep-17 12:48 121 3 gusting 12 28.3
2020-Sep-17 12:31 122 4 gusting 8 28.3
2020-Sep-17 12:16 122 2 gusting 6 27.8
2020-Sep-17 12:01 175 1 gusting 6 27.8
2020-Sep-17 11:45 192 0 gusting 6 27.8
2020-Sep-17 11:31 179 2 gusting 7 27.2
2020-Sep-17 11:16 163 1 gusting 9 26.7
2020-Sep-17 11:01 137 2 gusting 8 25.0
2020-Sep-17 10:46 144 3 gusting 9 23.9
2020-Sep-17 10:31 129 4 gusting 8 23.9
2020-Sep-17 10:15 115 2 gusting 7 23.9
2020-Sep-17 10:00 135 3 gusting 7 23.9
2020-Sep-17 09:45 128 1 gusting 7 23.3
2020-Sep-17 09:30 127 2 gusting 6 22.8
2020-Sep-17 09:15 170 1 gusting 6 22.8
2020-Sep-17 09:00 120 1 gusting 6 22.2